TimeCST,TemperatureF,Dew PointF,Humidity,Sea Level PressureIn,VisibilityMPH,Wind Direction,Wind SpeedMPH,Gust SpeedMPH,PrecipitationIn,Events,Conditions,WindDirDegrees,DateUTC
12:53 AM,34.0,28.0,79,30.20,10.0,NE,5.8,-,N/A,,Clear,50,2013-11-20 06:53:00
1:53 AM,32.0,28.0,85,30.19,10.0,ENE,8.1,-,N/A,,Clear,60,2013-11-20 07:53:00
2:53 AM,34.0,28.9,82,30.19,10.0,East,6.9,-,N/A,,Clear,90,2013-11-20 08:53:00
3:53 AM,33.1,28.0,82,30.20,10.0,Calm,Calm,-,N/A,,Clear,0,2013-11-20 09:53:00
4:53 AM,33.1,28.0,82,30.20,10.0,East,3.5,-,N/A,,Clear,80,2013-11-20 10:53:00
5:53 AM,33.1,28.9,85,30.19,10.0,East,3.5,-,N/A,,Clear,80,2013-11-20 11:53:00
6:53 AM,34.0,30.0,85,30.20,10.0,East,3.5,-,N/A,,Clear,90,2013-11-20 12:53:00
7:53 AM,37.9,32.0,79,30.19,10.0,ESE,5.8,-,N/A,,Clear,110,2013-11-20 13:53:00
8:53 AM,44.1,32.0,63,30.20,10.0,SSE,6.9,-,N/A,,Clear,150,2013-11-20 14:53:00
9:53 AM,48.9,33.1,54,30.19,10.0,SSE,6.9,-,N/A,,Clear,160,2013-11-20 15:53:00
10:53 AM,52.0,34.0,50,30.17,10.0,South,6.9,-,N/A,,Clear,170,2013-11-20 16:53:00
11:53 AM,55.0,34.0,45,30.14,10.0,South,8.1,-,N/A,,Clear,180,2013-11-20 17:53:00
12:53 PM,57.0,34.0,42,30.13,10.0,SSW,3.5,-,N/A,,Clear,200,2013-11-20 18:53:00
1:53 PM,59.0,34.0,39,30.10,10.0,South,11.5,-,N/A,,Clear,180,2013-11-20 19:53:00
2:53 PM,59.0,35.1,41,30.09,10.0,SSE,5.8,-,N/A,,Clear,160,2013-11-20 20:53:00
3:53 PM,61.0,36.0,39,30.08,10.0,SE,5.8,-,N/A,,Clear,140,2013-11-20 21:53:00
4:53 PM,55.0,37.9,53,30.09,10.0,SSE,5.8,-,N/A,,Clear,150,2013-11-20 22:53:00
5:53 PM,54.0,37.0,53,30.09,10.0,SE,4.6,-,N/A,,Clear,140,2013-11-20 23:53:00
6:53 PM,52.0,37.0,57,30.11,10.0,SSE,8.1,-,N/A,,Clear,150,2013-11-21 00:53:00
7:53 PM,50.0,37.0,61,30.13,10.0,SSE,8.1,-,N/A,,Clear,160,2013-11-21 01:53:00
8:53 PM,52.0,37.0,57,30.12,10.0,SSE,6.9,-,N/A,,Clear,150,2013-11-21 02:53:00
9:53 PM,48.9,37.0,64,30.13,10.0,SSE,6.9,-,N/A,,Clear,150,2013-11-21 03:53:00
10:53 PM,50.0,37.0,61,30.14,10.0,South,8.1,-,N/A,,Clear,180,2013-11-21 04:53:00
11:53 PM,48.0,37.0,66,30.14,10.0,South,6.9,-,N/A,,Clear,170,2013-11-21 05:53:00